Find Starlink 32832

NORAD ID: 63040 Int'l Des: 2025-034 Owner: SPXS Country: US Constellation: starlink operational
LEOCIRCULAR

当前视图

正在加载3D地球...

About Starlink 32832

Starlink 32832 (NORAD 63040) is a starlink constellation satellite (v2 mini) launched Feb 18, 2025 by SPXS of US. It operates in LEO, CIRCULAR orbit with a mass of 730.00 kg.

即将过境

Passes for default location (London). Set your location on the main map for personalized predictions.

高度历史

Loading altitude history...

两行轨道根数

1 63040U 25034M 26263.09618322 .00014994 00000-0 49372-3 0 9992
2 63040 53.1572 73.5404 0000667 77.0440 283.0636 15.31715583 88870
Epoch: Sep 20, 2026 • Age: 24 hours

当前状态

高度 475.8 km
远地点 / 近地点 N/A
速度 7.63 km/s
星下点 48.82°N, 156.34°E
发射日期 Feb 18, 2025
运行时间 1.5 years
类型 internet

技术详情

分类 Payload
质量 730.00 kg
干质量 700.00 kg
长度 0.30 m
跨度 29.00 m
形状 ? Box + pan
制造商 SPXS
平台类型 Starlink V2M
阶段状态 In Orbit
所有者/国家 SPXS/US

Most Searched